Home > Weather > Fort Bragg > Past weeks

Flag for USA Past Weather in Fort Bragg, California, USA — Yesterday and Last 2 Weeks

Now
99 °F

Sunny.


Feels Like: 95 °F
Forecast: 55 / 73 °F
Wind: 3 mph from North

Location: Ukiah Municipal

Current Time: Jul 27, 2016 at 8:06:40 PM

Latest Report: Jul 27, 2016 at 6:56 PM


Visibility: 10 mi

Pressure: 29.79 "Hg

Humidity: 16%

Dew Point: 45 °F

Location of Fort BraggLocation

Past Weather in Fort Bragg — Graph

°F

Fort Bragg Temperature Yesterday

Maximum temperature yesterday: 106 °F (at 2:56 PM)
Minimum temperature yesterday: 60 °F (at 5:56 AM)
Average temperature yesterday: 82 °F

High & Low Weather Summary for the Past Weeks

 TemperatureHumidityPressure
High106 °F (Jul 26, 2:56 PM)86% (Jul 18, 5:56 AM)30.12 "Hg (Jul 18, 5:56 AM)
Low49 °F (Jul 21, 5:56 AM)10% (Jul 26, 2:56 PM)29.76 "Hg (Jul 16, 3:56 PM)
Average74 °F47%29.92 "Hg
* Reported Jul 12 6:56 PM — Jul 27 6:56 PM, Fort Bragg, Weather by CustomWeather, © 2016

Note: Actual official high and low records may vary slightly from our data, if they occured in-between our weather recording intervals... More about our weather records

Advertising

Fort Bragg Weather History for the Previous 24 Hours

Scroll right to see more
 ConditionsComfort  
Time TempWeatherWind HumidityBarometerVisibility
6:56 PM
Wed, Jul 27
99 °FSunny.3 mph16%29.79 "Hg10 mi
5:56 PM102 °FSunny.9 mph14%29.78 "Hg10 mi
4:56 PM104 °FSunny.9 mph15%29.78 "Hg10 mi
3:56 PM105 °FSunny.6 mph15%29.79 "Hg10 mi
2:56 PM105 °FSunny.9 mph14%29.80 "Hg10 mi
1:56 PM104 °FSunny.8 mph15%29.81 "Hg10 mi
12:56 PM100 °FSunny.7 mph16%29.83 "Hg10 mi
11:56 AM94 °FSunny.6 mph27%29.85 "Hg10 mi
10:56 AM87 °FSunny.3 mph31%29.86 "Hg10 mi
9:56 AM81 °FSunny.No wind38%29.87 "Hg10 mi
8:56 AM75 °FSunny.No wind45%29.88 "Hg10 mi
7:56 AM68 °FSunny.No wind57%29.88 "Hg10 mi
6:56 AM61 °FClear.No wind70%29.88 "Hg10 mi
5:56 AM62 °FClear.No wind60%29.86 "Hg10 mi
4:56 AM63 °FClear.No wind60%29.85 "Hg10 mi
3:56 AM63 °FClear.No wind65%29.84 "Hg10 mi
2:56 AM64 °FClear.No wind63%29.83 "Hg10 mi
1:56 AM70 °FClear.No wind49%29.83 "Hg10 mi
12:56 AM69 °FClear.No wind55%29.83 "Hg10 mi
11:56 PM
Tue, Jul 26
74 °FClear.No wind41%29.84 "Hg10 mi
10:56 PM77 °FClear.No wind42%29.84 "Hg10 mi
9:56 PM78 °FClear.No wind40%29.83 "Hg10 mi
8:56 PM85 °FSunny.No wind29%29.81 "Hg10 mi
Weather by CustomWeather, © 2016

See weather overviewHow to use our weather pages